Weather reports worldwide

Advertisment
Orense, Spain (8048): temperature & dewpoint: 20.09.2018 17:00:00 - 26.09.2018 17:00:00 (CEST)Orense, Spain (8048): wind speed: 20.09.2018 17:00:00 - 26.09.2018 17:00:00 (CEST)Orense, Spain (8048): wind direction: 20.09.2018 17:00:00 - 26.09.2018 17:00:00 (CEST)Orense, Spain (8048): reduced air pressure: 20.09.2018 17:00:00 - 26.09.2018 17:00:00 (CEST)Orense, Spain (8048): visibility: 20.09.2018 17:00:00 - 26.09.2018 17:00:00 (CEST)Orense, Spain (8048): precipitation: 20.09.2018 17:00:00 - 26.09.2018 17:00:00 (CEST)
Date & Time tt [°C] td [°C] ff [km/h] ff [kn] dd ppp [hPa] vv [km] rr [mm]
26.09.2018 17:00:00 33,8 9,8 4 2 NNW 1019,9 20 -
26.09.2018 16:00:00 34,1 8,7 5 3 WSW 1019,8 20 0,0
26.09.2018 15:00:00 32,3 7,9 5 3 SSE 1020,3 20 0,0
26.09.2018 14:00:00 27,8 10,5 4 2 NNW 1021,1 20 -
26.09.2018 13:00:00 24,2 11,2 5 3 SW 1022,0 20 0,0
26.09.2018 12:00:00 20,8 11,4 4 2 S 1022,5 20 0,0
26.09.2018 11:00:00 16,2 10,3 4 2 S 1023,0 2,0 -
26.09.2018 10:00:00 11,7 9,6 2 1 SSW 1023,3 20 0,0
26.09.2018 09:00:00 10,5 8,4 2 1 W 1022,9 20 0,0
26.09.2018 08:00:00 10,9 8,8 2 1 WSW 1022,4 20 -
26.09.2018 07:00:00 11,5 9,1 0 0 N 1022,0 20 0,0
26.09.2018 06:00:00 12,3 9,5 0 0 N 1021,8 20 0,0
26.09.2018 05:00:00 12,9 10,1 2 1 E 1021,8 20 -
26.09.2018 04:00:00 13,5 10,1 2 1 E 1021,8 20 0,0
26.09.2018 03:00:00 14,4 10,4 0 0 N 1021,8 20 0,0
26.09.2018 02:00:00 15,7 10,9 2 1 SSE 1021,7 20 -
26.09.2018 01:00:00 16,9 11,2 2 1 SSW 1021,3 20 0,0
26.09.2018 00:00:00 18,7 11,0 2 1 SSE 1020,8 20 0,0
25.09.2018 23:00:00 20,8 10,9 2 1 N 1020,5 20 -
25.09.2018 22:00:00 22,6 11,0 4 2 N 1019,9 20 0,0
25.09.2018 21:00:00 24,2 11,5 4 2 SSW 1019,2 20 0,0
25.09.2018 20:00:00 27,6 12,0 4 2 N 1018,2 20 -
25.09.2018 19:00:00 29,8 12,2 5 3 NNE 1017,8 20 0,0
25.09.2018 18:00:00 30,9 10,8 5 3 NNW 1018,0 20 0,0
25.09.2018 17:00:00 30,8 9,1 4 2 N 1018,5 20 -
25.09.2018 16:00:00 29,5 9,1 5 3 NNW 1019,2 20 0,0
25.09.2018 15:00:00 27,1 9,4 8 4 NW 1020,3 20 0,0
25.09.2018 14:00:00 25,2 9,5 4 2 N 1021,4 20 -
25.09.2018 13:00:00 22,8 9,9 4 2 N 1022,4 20 0,0
25.09.2018 12:00:00 19,9 10,3 5 3 N 1023,3 20 0,0
25.09.2018 11:00:00 16,7 10,1 4 2 ENE 1023,9 20 -
25.09.2018 10:00:00 12,0 9,9 4 2 SSE 1024,1 20 0,0
25.09.2018 09:00:00 11,1 9,2 4 2 SE 1024,0 18 0,0
25.09.2018 08:00:00 11,5 9,6 4 2 SSE 1023,5 20 -
25.09.2018 07:00:00 12,0 9,9 4 2 SE 1023,3 20 0,0
25.09.2018 06:00:00 12,5 10,0 2 1 SSE 1023,2 20 0,0
25.09.2018 05:00:00 13,5 10,5 2 1 SSE 1023,5 20 -
25.09.2018 04:00:00 14,9 10,7 2 1 SE 1023,7 20 0,0
25.09.2018 03:00:00 15,5 10,9 4 2 NE 1023,6 20 0,0
25.09.2018 02:00:00 16,0 11,0 5 3 NE 1023,8 20 -
25.09.2018 01:00:00 16,4 11,1 5 3 NNW 1023,8 20 0,0
25.09.2018 00:00:00 17,0 11,3 8 4 N 1023,7 20 0,0
24.09.2018 23:00:00 18,0 11,5 5 3 NNW 1023,0 20 -
24.09.2018 22:00:00 19,4 12,2 5 3 NNW 1022,3 20 0,0
24.09.2018 21:00:00 21,7 12,8 5 3 NNW 1021,3 20 0,0
24.09.2018 20:00:00 25,2 13,7 5 3 N 1020,4 20 -
24.09.2018 19:00:00 28,7 14,9 5 3 NNE 1019,7 20 0,0
24.09.2018 18:00:00 30,1 15,4 5 3 NNE 1019,6 20 0,0
24.09.2018 17:00:00 30,7 15,9 5 3 N 1020,1 20 -
24.09.2018 16:00:00 29,5 15,2 5 3 N 1021,0 19 0,0
24.09.2018 15:00:00 28,2 15,5 8 4 N 1022,1 20 0,0
24.09.2018 14:00:00 26,5 15,2 5 3 N 1023,3 20 -
24.09.2018 13:00:00 24,5 14,9 5 3 N 1024,5 20 0,0
24.09.2018 12:00:00 23,0 14,8 5 3 N 1025,2 20 0,0
24.09.2018 11:00:00 21,0 14,6 4 2 N 1025,6 20 -
24.09.2018 10:00:00 19,9 14,7 4 2 NNE 1025,6 20 0,0
24.09.2018 09:00:00 19,4 14,9 2 1 N 1025,3 20 0,0
24.09.2018 08:00:00 19,6 15,3 2 1 NNE 1024,9 20 -
24.09.2018 07:00:00 19,1 15,6 2 1 SSW 1024,6 20 0,0
24.09.2018 06:00:00 19,3 15,8 2 1 W 1024,6 20 0,0
24.09.2018 05:00:00 19,9 15,9 4 2 WNW 1024,6 20 -
24.09.2018 04:00:00 19,7 16,0 2 1 WSW 1024,7 20 0,0
24.09.2018 03:00:00 20,3 16,1 4 2 W 1024,7 20 0,0
24.09.2018 02:00:00 21,2 16,4 4 2 W 1024,8 20 -
24.09.2018 01:00:00 21,9 16,6 4 2 W 1025,0 20 0,0
24.09.2018 00:00:00 22,6 16,6 4 2 NNW 1025,0 20 0,0
23.09.2018 23:00:00 24,0 17,3 4 2 NE 1024,7 20 -
23.09.2018 22:00:00 25,7 17,6 4 2 N 1024,0 20 0,0
23.09.2018 21:00:00 27,9 17,1 5 3 NNW 1022,8 20 0,0
23.09.2018 20:00:00 31,2 16,0 4 2 N 1021,8 20 -
23.09.2018 19:00:00 32,9 13,5 5 3 N 1021,2 20 0,0
23.09.2018 18:00:00 33,6 13,6 4 2 N 1021,0 20 0,0
23.09.2018 17:00:00 33,8 14,8 5 3 N 1020,9 20 -
23.09.2018 16:00:00 33,4 17,6 4 2 SSW 1021,2 20 0,0
23.09.2018 15:00:00 30,8 17,1 2 1 SSW 1021,9 20 0,0
23.09.2018 14:00:00 28,4 17,0 4 2 NW 1022,7 20 -
23.09.2018 13:00:00 25,5 17,4 4 2 S 1023,3 20 0,0
23.09.2018 12:00:00 22,7 16,7 4 2 W 1024,3 20 0,0
23.09.2018 11:00:00 19,5 15,8 4 2 S 1024,8 20 -
23.09.2018 10:00:00 15,7 14,4 2 1 SSE 1024,8 20 0,0
23.09.2018 09:00:00 14,8 13,2 2 1 WSW 1024,5 20 0,0
23.09.2018 08:00:00 15,1 13,5 2 1 S 1023,9 20 -
23.09.2018 07:00:00 15,7 13,9 0 0 N 1023,6 20 0,0
23.09.2018 06:00:00 16,1 14,1 2 1 SW 1023,5 20 0,0
23.09.2018 05:00:00 16,9 14,5 2 1 SSW 1023,3 20 -
23.09.2018 04:00:00 17,5 14,8 4 2 W 1023,3 20 0,0
23.09.2018 03:00:00 18,6 15,3 0 0 N 1023,4 20 0,0
23.09.2018 02:00:00 19,6 15,7 2 1 S 1023,5 18 -
23.09.2018 01:00:00 20,9 16,1 2 1 S 1023,6 20 0,0
23.09.2018 00:00:00 22,0 16,5 2 1 W 1023,3 20 0,0
22.09.2018 23:00:00 23,9 16,7 2 1 WSW 1022,8 20 -
22.09.2018 22:00:00 26,2 16,7 4 2 E 1022,1 20 0,0
22.09.2018 21:00:00 28,1 16,7 4 2 WSW 1021,0 20 0,0
22.09.2018 20:00:00 31,9 16,6 5 3 W 1020,1 20 -
22.09.2018 19:00:00 33,4 15,4 4 2 WSW 1019,7 20 0,0
22.09.2018 18:00:00 33,6 14,6 4 2 SW 1019,7 20 0,0
22.09.2018 17:00:00 32,8 14,4 5 3 W 1020,3 20 -
22.09.2018 16:00:00 32,0 14,6 4 2 SW 1020,8 20 0,0
22.09.2018 15:00:00 29,7 14,7 4 2 NNW 1021,4 20 0,0
22.09.2018 14:00:00 26,8 15,5 5 3 W 1022,3 20 -
22.09.2018 13:00:00 23,8 16,3 4 2 W 1023,1 20 0,0
22.09.2018 12:00:00 20,4 15,4 4 2 WNW 1023,9 19 0,0
22.09.2018 11:00:00 16,8 15,3 2 1 ESE 1024,2 12 -
22.09.2018 10:00:00 15,7 14,7 2 1 SSE 1024,0 8 0,0
22.09.2018 09:00:00 14,4 13,3 2 1 S 1023,7 19 0,0
22.09.2018 08:00:00 14,1 12,5 4 2 W 1023,2 20 -
22.09.2018 07:00:00 14,6 12,8 0 0 N 1022,8 20 0,0
22.09.2018 06:00:00 15,2 13,2 2 1 S 1022,4 20 0,0
22.09.2018 05:00:00 15,8 13,8 2 1 SSW 1022,4 19 -
22.09.2018 04:00:00 16,4 14,2 2 1 S 1022,4 20 0,0
22.09.2018 03:00:00 17,1 14,4 2 1 S 1022,5 20 0,0
22.09.2018 02:00:00 17,9 14,8 2 1 W 1022,4 20 -
22.09.2018 01:00:00 18,9 15,4 2 1 SSW 1022,1 20 0,0
22.09.2018 00:00:00 20,1 15,5 2 1 S 1021,9 20 0,0
21.09.2018 23:00:00 21,9 16,0 4 2 WSW 1021,5 20 -
21.09.2018 22:00:00 23,5 15,8 4 2 ENE 1020,9 20 0,0
21.09.2018 21:00:00 25,2 15,8 2 1 NNE 1020,0 20 0,0
21.09.2018 20:00:00 26,7 15,7 4 2 W 1019,5 20 -
21.09.2018 19:00:00 27,4 16,4 5 3 SW 1019,1 20 0,0
21.09.2018 18:00:00 27,4 16,1 5 3 W 1019,6 20 0,0
21.09.2018 17:00:00 27,3 16,0 8 4 WSW 1019,6 20 -
21.09.2018 16:00:00 27,4 15,4 5 3 WSW 1019,9 20 0,0
21.09.2018 15:00:00 26,1 14,9 8 4 WSW 1020,6 20 0,0
21.09.2018 14:00:00 25,0 14,8 8 4 S 1021,0 20 -
21.09.2018 13:00:00 23,5 13,9 4 2 NNW 1021,6 20 0,0
21.09.2018 12:00:00 20,8 14,7 4 2 W 1022,0 20 0,0
21.09.2018 11:00:00 17,9 14,2 4 2 W 1022,1 20 -
21.09.2018 10:00:00 16,1 13,8 2 1 SSE 1021,8 20 0,0
21.09.2018 09:00:00 14,6 13,0 2 1 SW 1021,8 20 0,0
21.09.2018 08:00:00 13,9 12,1 2 1 WSW 1021,1 20 -
21.09.2018 07:00:00 14,0 12,0 2 1 SW 1021,0 20 0,0
21.09.2018 06:00:00 14,6 12,6 2 1 SSE 1020,4 20 0,0
21.09.2018 05:00:00 15,2 13,0 2 1 S 1020,6 20 -
21.09.2018 04:00:00 15,5 13,0 2 1 SSE 1020,4 20 0,0
21.09.2018 03:00:00 16,6 13,5 4 2 W 1020,1 20 0,0
21.09.2018 02:00:00 17,8 13,9 4 2 WSW 1020,2 20 -
21.09.2018 01:00:00 18,5 14,4 4 2 W 1020,5 20 0,0
21.09.2018 00:00:00 18,7 14,2 4 2 SE 1020,6 20 0,0
20.09.2018 23:00:00 19,3 13,9 5 3 SSE 1020,1 20 -
20.09.2018 22:00:00 20,4 13,8 5 3 S 1019,8 20 0,0
20.09.2018 21:00:00 22,2 14,1 5 3 SSW 1018,9 20 0,0
20.09.2018 20:00:00 24,6 12,9 8 4 WSW 1018,4 20 -
20.09.2018 19:00:00 27,2 13,5 9 5 WSW 1017,4 20 0,0
20.09.2018 18:00:00 28,1 10,8 9 5 SW 1016,8 20 0,0
20.09.2018 17:00:00 29,0 15,2 8 4 WSW 1016,9 20 -

tt = temperature
td = dewpoint
ff = wind speed
dd = wind direction
ppp = reduced air pressure
vv = visibility
rr = precipitation

Next stations